| time (UTC) | temp F | wind direction | speed knots | gust knots | rain 1hr in | rain 24hr in | rain mn in | humidity % | barometer mb |
| 20260510220705 | 59 | 325 | 4.3 | 13.9 | 0.00 | 0.01 | 0.01 | 45 | 1010.5 |
| 20260510220204 | 59 | 320 | 10.4 | 18.2 | 0.00 | 0.01 | 0.01 | 43 | 1010.4 |
| 20260510214705 | 60 | 319 | 8.7 | 14.8 | 0.00 | 0.01 | 0.01 | 44 | 1010.1 |
| 20260510214204 | 60 | 311 | 6.1 | 18.2 | 0.00 | 0.01 | 0.01 | 41 | 1010.0 |
| 20260510212205 | 61 | 261 | 10.4 | 18.2 | 0.00 | 0.01 | 0.01 | 38 | 1009.8 |
| 20260510210705 | 61 | 283 | 7.8 | 17.4 | 0.00 | 0.01 | 0.01 | 40 | 1009.6 |
| 20260510210204 | 61 | 290 | 8.7 | 17.4 | 0.00 | 0.01 | 0.01 | 41 | 1009.5 |
| 20260510204704 | 60 | 286 | 8.7 | 18.2 | 0.00 | 0.01 | 0.01 | 38 | 1009.4 |
| 20260510204204 | 61 | 298 | 8.7 | 14.8 | 0.00 | 0.01 | 0.01 | 41 | 1009.3 |
| 20260510202704 | 61 | 261 | 8.7 | 14.8 | 0.00 | 0.01 | 0.01 | 39 | 1009.3 |
| 20260510202204 | 62 | 286 | 10.4 | 17.4 | 0.00 | 0.01 | 0.01 | 40 | 1009.3 |
| 20260510200704 | 60 | 281 | 5.2 | 14.8 | 0.00 | 0.01 | 0.01 | 43 | 1009.1 |
| 20260510200204 | 60 | 249 | 6.1 | 17.4 | 0.00 | 0.01 | 0.01 | 41 | 1009.2 |
| 20260510194704 | 61 | 309 | 9.6 | 17.4 | 0.00 | 0.01 | 0.01 | 41 | 1009.3 |
| 20260510194205 | 61 | 293 | 5.2 | 17.4 | 0.00 | 0.01 | 0.01 | 42 | 1009.1 |
| 20260510192705 | 61 | 244 | 4.3 | 13.9 | 0.00 | 0.01 | 0.01 | 45 | 1009.0 |
| 20260510192204 | 61 | 295 | 7.8 | 17.4 | 0.00 | 0.01 | 0.01 | 43 | 1009.0 |
| 20260510190704 | 62 | 314 | 8.7 | 17.4 | 0.00 | 0.01 | 0.01 | 44 | 1008.8 |
| 20260510190204 | 62 | 292 | 8.7 | 15.6 | 0.00 | 0.01 | 0.01 | 43 | 1008.8 |
| 20260510184704 | 62 | 289 | 7.0 | 15.6 | 0.00 | 0.01 | 0.01 | 45 | 1008.9 |
| 20260510184204 | 62 | 268 | 7.0 | 15.6 | 0.00 | 0.01 | 0.01 | 43 | 1008.9 |
| 20260510182704 | 63 | 321 | 7.0 | 15.6 | 0.00 | 0.01 | 0.01 | 42 | 1008.8 |
| 20260510182204 | 63 | 271 | 4.3 | 14.8 | 0.00 | 0.01 | 0.01 | 41 | 1008.7 |
| 20260510180204 | 63 | 257 | 5.2 | 17.4 | 0.00 | 0.01 | 0.01 | 42 | 1008.6 |
| 20260510174704 | 62 | 201 | 5.2 | 17.4 | 0.00 | 0.01 | 0.01 | 37 | 1008.5 |
| 20260510174204 | 62 | 252 | 6.1 | 14.8 | 0.00 | 0.01 | 0.01 | 39 | 1008.5 |
| 20260510172704 | 61 | 243 | 8.7 | 15.6 | 0.00 | 0.01 | 0.01 | 39 | 1008.4 |
| 20260510172205 | 62 | 259 | 9.6 | 18.2 | 0.00 | 0.01 | 0.01 | 38 | 1008.5 |
| 20260510170705 | 62 | 308 | 6.1 | 15.6 | 0.00 | 0.01 | 0.01 | 43 | 1008.4 |
| 20260510170204 | 61 | 241 | 5.2 | 13.9 | 0.00 | 0.01 | 0.01 | 42 | 1008.3 |
| 20260510164704 | 61 | 261 | 6.1 | 14.8 | 0.00 | 0.01 | 0.01 | 43 | 1008.4 |
| 20260510164204 | 61 | 250 | 6.1 | 14.8 | 0.00 | 0.01 | 0.01 | 43 | 1008.3 |
| 20260510162704 | 61 | 260 | 6.1 | 12.2 | 0.00 | 0.01 | 0.01 | 47 | 1008.3 |
| 20260510160704 | 61 | 297 | 2.6 | 15.6 | 0.00 | 0.01 | 0.01 | 51 | 1008.1 |
| 20260510160204 | 61 | 290 | 7.8 | 13.0 | 0.00 | 0.01 | 0.01 | 49 | 1008.3 |
| 20260510154704 | 61 | 240 | 6.1 | 13.0 | 0.00 | 0.01 | 0.01 | 49 | 1008.3 |
| 20260510154204 | 61 | 237 | 4.3 | 13.0 | 0.00 | 0.01 | 0.01 | 51 | 1008.4 |
| 20260510152704 | 59 | 298 | 5.2 | 10.4 | 0.00 | 0.01 | 0.01 | 57 | 1008.1 |
| 20260510152204 | 59 | 273 | 3.5 | 13.0 | 0.00 | 0.01 | 0.01 | 58 | 1008.1 |
| 20260510150704 | 61 | 265 | 4.3 | 10.4 | 0.00 | 0.01 | 0.01 | 60 | 1007.9 |
| 20260510150204 | 61 | 212 | 5.2 | 11.3 | 0.00 | 0.01 | 0.01 | 59 | 1007.9 |
| 20260510144705 | 60 | 200 | 3.5 | 13.0 | 0.00 | 0.01 | 0.01 | 57 | 1007.9 |
| 20260510144204 | 60 | 210 | 3.5 | 13.0 | 0.00 | 0.01 | 0.01 | 58 | 1007.9 |
| 20260510142704 | 58 | 210 | 4.3 | 7.8 | 0.00 | 0.01 | 0.01 | 59 | 1007.9 |
| 20260510142205 | 57 | 232 | 4.3 | 10.4 | 0.00 | 0.01 | 0.01 | 60 | 1007.8 |
| 20260510140707 | 56 | 207 | 3.5 | 11.3 | 0.00 | 0.01 | 0.01 | 61 | 1008.0 |
| 20260510140207 | 56 | 201 | 3.5 | 12.2 | 0.00 | 0.01 | 0.01 | 61 | 1007.9 |
| 20260510134704 | 57 | 225 | 4.3 | 11.3 | 0.00 | 0.01 | 0.01 | 66 | 1007.8 |
| 20260510134204 | 56 | 208 | 4.3 | 12.2 | 0.00 | 0.01 | 0.01 | 69 | 1007.7 |
| 20260510132704 | 56 | 236 | 4.3 | 8.7 | 0.00 | 0.01 | 0.01 | 66 | 1007.6 |
| 20260510132204 | 56 | 246 | 3.5 | 7.0 | 0.00 | 0.01 | 0.01 | 67 | 1007.6 |
| 20260510130704 | 57 | 233 | 4.3 | 11.3 | 0.00 | 0.01 | 0.01 | 70 | 1007.5 |
| 20260510130204 | 57 | 229 | 6.1 | 13.9 | 0.00 | 0.01 | 0.01 | 70 | 1007.4 |
| 20260510124704 | 56 | 208 | 5.2 | 7.8 | 0.00 | 0.01 | 0.01 | 74 | 1007.3 |
| 20260510124204 | 56 | 218 | 4.3 | 8.7 | 0.00 | 0.01 | 0.01 | 76 | 1007.2 |
| 20260510122204 | 55 | 209 | 2.6 | 17.4 | 0.00 | 0.01 | 0.01 | 81 | 1007.3 |
| 20260510120704 | 55 | 189 | 2.6 | 5.2 | 0.00 | 0.01 | 0.01 | 83 | 1007.2 |
| 20260510120204 | 55 | 211 | 4.3 | 13.9 | 0.00 | 0.01 | 0.01 | 84 | 1007.1 |
| 20260510114704 | 54 | 184 | 5.2 | 10.4 | 0.00 | 0.01 | 0.01 | 86 | 1006.9 |
| 20260510114204 | 53 | 165 | 3.5 | 7.8 | 0.00 | 0.01 | 0.01 | 86 | 1006.7 |
| 20260510112704 | 53 | 184 | 3.5 | 7.8 | 0.00 | 0.01 | 0.01 | 87 | 1006.7 |
| 20260510112203 | 53 | 168 | 2.6 | 7.8 | 0.00 | 0.01 | 0.01 | 87 | 1006.8 |
| 20260510110704 | 53 | 186 | 4.3 | 10.4 | 0.00 | 0.01 | 0.01 | 87 | 1006.5 |
| 20260510110204 | 52 | 163 | 2.6 | 10.4 | 0.00 | 0.01 | 0.01 | 87 | 1006.6 |
| 20260510104704 | 52 | 171 | 2.6 | 6.1 | 0.00 | 0.01 | 0.01 | 88 | 1006.2 |
| 20260510104204 | 52 | 162 | 2.6 | 7.0 | 0.00 | 0.01 | 0.01 | 88 | 1006.3 |
| 20260510102704 | 51 | 182 | 2.6 | 10.4 | 0.00 | 0.01 | 0.01 | 88 | 1006.2 |
| 20260510102204 | 51 | 174 | 4.3 | 7.8 | 0.00 | 0.01 | 0.01 | 88 | 1006.1 |
| 20260510100704 | 51 | 171 | 3.5 | 7.8 | 0.00 | 0.01 | 0.01 | 88 | 1005.7 |
| 20260510100204 | 51 | 171 | 1.7 | 5.2 | 0.00 | 0.01 | 0.01 | 88 | 1005.6 |
| 20260510094704 | 51 | 169 | 2.6 | 4.3 | 0.00 | 0.01 | 0.01 | 88 | 1005.4 |
| 20260510094204 | 51 | 164 | 2.6 | 7.0 | 0.00 | 0.01 | 0.01 | 88 | 1005.4 |
| 20260510092704 | 51 | 162 | 3.5 | 7.0 | 0.00 | 0.01 | 0.01 | 88 | 1005.2 |
| 20260510092204 | 51 | 165 | 4.3 | 8.7 | 0.00 | 0.01 | 0.01 | 88 | 1005.2 |
| 20260510090704 | 50 | 161 | 2.6 | 6.1 | 0.00 | 0.01 | 0.01 | 88 | 1005.2 |
| 20260510084704 | 50 | 148 | 4.3 | 7.8 | 0.00 | 0.01 | 0.01 | 88 | 1005.2 |
| 20260510082704 | 50 | 173 | 4.3 | 6.1 | 0.00 | 0.01 | 0.01 | 88 | 1005.2 |
| 20260510082203 | 50 | 171 | 2.6 | 7.0 | 0.00 | 0.01 | 0.01 | 88 | 1005.1 |
| 20260510080703 | 50 | 151 | 2.6 | 4.3 | 0.01 | 0.01 | 0.01 | 88 | 1005.0 |
| 20260510080204 | 50 | 144 | 2.6 | 7.8 | 0.01 | 0.01 | 0.01 | 88 | 1005.1 |
| 20260510074705 | 50 | 156 | 2.6 | 5.2 | 0.01 | 0.01 | 0.01 | 87 | 1005.1 |
| 20260510074205 | 50 | 130 | 2.6 | 7.0 | 0.01 | 0.01 | 0.01 | 87 | 1005.1 |
| 20260510072705 | 50 | 137 | 2.6 | 5.2 | 0.01 | 0.01 | 0.01 | 86 | 1005.2 |
| 20260510072206 | 50 | 157 | 2.6 | 7.0 | 0.01 | 0.01 | 0.01 | 86 | 1005.1 |
| 20260510070705 | 51 | 165 | 3.5 | 6.1 | 0.00 | 0.00 | 0.00 | 84 | 1005.3 |
| 20260510070205 | 51 | 163 | 4.3 | 7.8 | 0.00 | 0.00 | 0.00 | 83 | 1005.2 |
| 20260510064705 | 51 | 151 | 3.5 | 8.7 | 0.00 | 0.00 | 0.00 | 81 | 1005.1 |
| 20260510064205 | 51 | 165 | 3.5 | 10.4 | 0.00 | 0.00 | 0.00 | 80 | 1005.1 |
| 20260510062705 | 51 | 153 | 4.3 | 8.7 | 0.00 | 0.00 | 0.00 | 80 | 1005.1 |
| 20260510062205 | 51 | 154 | 4.3 | 8.7 | 0.00 | 0.00 | 0.00 | 80 | 1005.1 |
| 20260510060705 | 51 | 151 | 4.3 | 8.7 | 0.00 | 0.00 | 0.00 | 79 | 1005.1 |
| 20260510060205 | 51 | 142 | 5.2 | 14.8 | 0.00 | 0.00 | 0.00 | 79 | 1005.1 |
| 20260510054706 | 51 | 125 | 4.3 | 18.2 | 0.00 | 0.00 | 0.00 | 79 | 1005.1 |
| 20260510054205 | 51 | 134 | 4.3 | 14.8 | 0.00 | 0.00 | 0.00 | 79 | 1005.1 |
| 20260510052705 | 51 | 136 | 4.3 | 13.9 | 0.00 | 0.00 | 0.00 | 79 | 1005.4 |
| 20260510052205 | 51 | 129 | 4.3 | 15.6 | 0.00 | 0.00 | 0.00 | 79 | 1005.4 |
| 20260510050705 | 51 | 118 | 4.3 | 7.8 | 0.00 | 0.00 | 0.00 | 78 | 1005.4 |
| 20260510050205 | 51 | 130 | 5.2 | 13.9 | 0.00 | 0.00 | 0.00 | 78 | 1005.3 |
| 20260510044705 | 51 | 144 | 7.8 | 17.4 | 0.00 | 0.00 | 0.00 | 78 | 1005.2 |
| 20260510044205 | 51 | 131 | 5.2 | 12.2 | 0.00 | 0.00 | 0.00 | 79 | 1005.2 |
| 20260510042705 | 51 | 135 | 2.6 | 7.8 | 0.00 | 0.00 | 0.00 | 79 | 1005.2 |
| 20260510042206 | 50 | 137 | 6.1 | 13.0 | 0.00 | 0.00 | 0.00 | 79 | 1005.2 |
| 20260510040705 | 50 | 144 | 3.5 | 8.7 | 0.00 | 0.00 | 0.00 | 78 | 1005.6 |
| 20260510040205 | 50 | 132 | 3.5 | 8.7 | 0.00 | 0.00 | 0.00 | 78 | 1005.4 |
| 20260510034705 | 50 | 111 | 3.5 | 8.7 | 0.00 | 0.00 | 0.00 | 77 | 1005.4 |
| 20260510034205 | 50 | 123 | 2.6 | 11.3 | 0.00 | 0.00 | 0.00 | 76 | 1005.5 |
| 20260510032705 | 50 | 129 | 4.3 | 11.3 | 0.00 | 0.00 | 0.00 | 76 | 1005.9 |
| 20260510032205 | 50 | 139 | 2.6 | 8.7 | 0.00 | 0.00 | 0.00 | 75 | 1006.0 |
| 20260510030704 | 50 | 125 | 2.6 | 6.1 | 0.00 | 0.00 | 0.00 | 75 | 1006.3 |
| 20260510030205 | 50 | 129 | 3.5 | 7.8 | 0.00 | 0.00 | 0.00 | 74 | 1006.3 |
| 20260510024705 | 51 | 118 | 3.5 | 6.1 | 0.00 | 0.00 | 0.00 | 73 | 1006.5 |
| 20260510024205 | 51 | 137 | 2.6 | 7.8 | 0.00 | 0.00 | 0.00 | 73 | 1006.5 |
| 20260510022704 | 51 | 115 | 2.6 | 5.2 | 0.00 | 0.00 | 0.00 | 72 | 1006.5 |
| 20260510022205 | 51 | 131 | 2.6 | 7.8 | 0.00 | 0.00 | 0.00 | 72 | 1006.6 |
| 20260510020705 | 52 | 126 | 3.5 | 10.4 | 0.00 | 0.00 | 0.00 | 71 | 1006.5 |
| 20260510020205 | 52 | 116 | 3.5 | 7.8 | 0.00 | 0.00 | 0.00 | 70 | 1006.5 |
| 20260510014705 | 52 | 126 | 2.6 | 7.8 | 0.00 | 0.00 | 0.00 | 70 | 1006.6 |
| 20260510014204 | 52 | 125 | 3.5 | 13.9 | 0.00 | 0.00 | 0.00 | 69 | 1006.8 |
| 20260510012705 | 53 | 111 | 4.3 | 7.8 | 0.00 | 0.00 | 0.00 | 69 | 1006.9 |
| 20260510012205 | 53 | 129 | 2.6 | 13.9 | 0.00 | 0.00 | 0.00 | 69 | 1007.0 |
| 20260510010704 | 53 | 124 | 4.3 | 12.2 | 0.00 | 0.00 | 0.00 | 69 | 1007.0 |
| 20260510010205 | 53 | 122 | 2.6 | 13.9 | 0.00 | 0.00 | 0.00 | 70 | 1007.1 |
| 20260510004705 | 53 | 146 | 3.5 | 8.7 | 0.00 | 0.00 | 0.00 | 70 | 1007.0 |
| 20260510004204 | 53 | 150 | 4.3 | 15.6 | 0.00 | 0.00 | 0.00 | 70 | 1007.0 |
| 20260510002705 | 53 | 127 | 3.5 | 7.0 | 0.00 | 0.00 | 0.00 | 69 | 1006.8 |
| 20260510002204 | 53 | 128 | 3.5 | 11.3 | 0.00 | 0.00 | 0.00 | 69 | 1006.9 |
| 20260510000705 | 53 | 137 | 4.3 | 8.7 | 0.00 | 0.00 | 0.00 | 67 | 1006.8 |
| 20260510000205 | 54 | 119 | 4.3 | 10.4 | 0.00 | 0.00 | 0.00 | 67 | 1006.8 |
| 20260509234704 | 54 | 140 | 4.3 | 8.7 | 0.00 | 0.00 | 0.00 | 65 | 1006.9 |
| 20260509234205 | 55 | 144 | 2.6 | 10.4 | 0.00 | 0.00 | 0.00 | 64 | 1007.0 |
| 20260509232705 | 55 | 124 | 4.3 | 10.4 | 0.00 | 0.00 | 0.00 | 63 | 1006.9 |
| 20260509232205 | 56 | 135 | 4.3 | 11.3 | 0.00 | 0.00 | 0.00 | 62 | 1006.9 |
| 20260509230705 | 57 | 139 | 4.3 | 8.7 | 0.00 | 0.00 | 0.00 | 59 | 1006.8 |
| 20260509230204 | 58 | 130 | 4.3 | 13.0 | 0.00 | 0.00 | 0.00 | 58 | 1006.9 |
| 20260509224705 | 59 | 148 | 3.5 | 7.8 | 0.00 | 0.00 | 0.00 | 55 | 1006.7 |
| 20260509224205 | 59 | 129 | 4.3 | 14.8 | 0.00 | 0.00 | 0.00 | 54 | 1006.6 |
| 20260509222704 | 60 | 122 | 6.1 | 13.0 | 0.00 | 0.00 | 0.00 | 49 | 1006.5 |
| 20260509222204 | 61 | 130 | 5.2 | 11.3 | 0.00 | 0.00 | 0.00 | 49 | 1006.4 |